Location: Campestrin
(46.4667°N, 11.7167°E)
Time: 11:17:29
(UTC+00:00)

Resurs 1-3 - Pass Details

Date: 18 April 2021
Orbit: 629 x 633 km, 97.9° (Epoch: 07 May)

Event Time Altitude Azimuth Distance (km) Brightness Sun altitude
Exits shadow 19:23:13 10° 166° (SSE) 1,996 5.7 -13.0°
Maximum altitude 19:27:34 88° 253° (WSW) 639 3.6 -13.7°
Drops below altitude 10° 19:31:59 10° 346° (NNW) 2,022 6.9 -14.3°
Sets 19:34:12 0° 347° (NNW) 2,935 7.8 -14.6°
